Location: Norton
(51.3000°N, 0.8167°E)
Time: 16:05:07
(UTC+00:00)

USA 307 - Pass Details

Date: 03 March 2021
Orbit: 567 x 577 km, 54.0° (Epoch: 13 April)

Event Time Altitude Azimuth Distance (km) Brightness Sun altitude
Rises 19:55:09 0° 282° (WNW) 2,785 7.9 -21.5°
Reaches altitude 10° 19:57:26 10° 286° (WNW) 1,884 6.7 -21.9°
Maximum altitude 20:01:41 63° 8° (N) 645 3.1 -22.5°
Enters shadow 20:02:01 60° 34° (NNE) 659 3.0 -22.5°
